カタログに戻る

DELTA 1 DEB

運用中PO
NORAD 26822·DEBRIS·🇺🇸 United States

打ち上げ Jun 12, 1975 から Vandenberg Space Force Base

Loading…

次のパス (今後24時間)

TLE

最新Source: Space-Track

元期: Sep 13, 2026, 17:21 UTC

1 26822U 75052KC  26256.72312870 -.00000099  00000-0 -20458-3 0  9992
2 26822  99.7141 343.4130 0310324 314.0582 200.4080 12.83910263640927

AllMySatでDELTA 1 DEBをリアルタイム追跡

Download on the App Store